Location: *
(50.3194°N, 7.1067°E)
Time: 02:54:58
(UTC+00:00)

Cosmos 2341 Rocket - Pass Details

Date: 22 September 2019
Orbit: 967 x 1005 km, 82.9° (Epoch: 19 October)

Event Time Altitude Azimuth Distance (km) Brightness Sun altitude
Rises 18:29:50 0° 351° (N) 3,693 7.3 -10.2°
Reaches altitude 10° 18:32:23 10° 353° (N) 2,736 6.6 -10.6°
Maximum altitude 18:38:39 74° 79° (ENE) 1,013 4.0 -11.6°
Drops below altitude 10° 18:44:50 10° 164° (SSE) 2,703 6.0 -12.5°
Sets 18:47:20 0° 166° (SSE) 3,645 6.7 -12.9°
